Weather History for Harvey, ND

Change the Weather History Date:

Friday, September 21, 2012

  Actual Average (KRUG) Record (KRUG)
Temperature  
Mean Temperature 48 °F -  
Max Temperature 64 °F 65 °F 90 °F (1960)
Min Temperature 32 °F 41 °F 28 °F (1953)
Degree Days  
Heating Degree Days 17    
Moisture  
Dew Point 31 °F    
Average Humidity 52    
Maximum Humidity 87    
Minimum Humidity 22    
Precipitation  
Precipitation 0.00 in - - ()
Sea Level Pressure  
Sea Level Pressure 29.97 in    
Wind  
Wind Speed 11 mph (NNW)    
Max Wind Speed 28 mph    
Max Gust Speed 39 mph    
Visibility 10 miles    
Events Rain    
Averages and records for this station are not official NWS values.
T = Trace of Precipitation, MM = Missing Value Source: NWS Daily Summary

Daily Weather History Graph

Daily Weather History Graph

Search for Another Location

Airport:

Trip Planner

Search our weather history database for the weather conditions in past years. The results will help you decide how hot, cold, wet, or windy it might be!

Date:

Astronomy

Sep. 21, 2012 Rise Set
Actual Time 7:25 AM CDT 7:38 PM CDT
Civil Twilight 6:54 AM CDT 8:09 PM CDT
Nautical Twilight 6:18 AM CDT 8:45 PM CDT
Astronomical Twilight 5:40 AM CDT 9:23 PM CDT
Moon 2:16 PM CDT (9/21) 11:14 PM CDT (9/21)
Length of Visible Light 13h 14m
Length of Day
12h 12m
Waxing Crescent, 37% of the Moon is Illuminated
Sep 21
Waxing Crescent
Sep 22
First Quarter
Sep 29
Full
Oct 8
Last Quarter
Oct 15
New

Hourly Weather History & Observations

Time (CDT) Temp. Windchill Dew Point Humidity Pressure Visibility Wind Dir Wind Speed Gust Speed Precip Events Conditions
12:15 AM 50.0 °F - 35.6 °F 58% 29.88 in 10.0 mi WNW 6.9 mph - N/A   Clear
12:35 AM 50.0 °F - 35.6 °F 58% 29.88 in 10.0 mi WNW 8.1 mph - N/A   Clear
12:55 AM 50.0 °F - 35.6 °F 58% 29.88 in 10.0 mi WNW 9.2 mph - N/A   Clear
1:15 AM 50.0 °F - 35.6 °F 58% 29.88 in 10.0 mi WNW 9.2 mph - N/A   Clear
1:35 AM 48.2 °F - 35.6 °F 62% 29.89 in 10.0 mi WNW 8.1 mph - N/A   Clear
1:55 AM 48.2 °F - 37.4 °F 66% 29.88 in 10.0 mi WNW 8.1 mph - N/A   Clear
2:15 AM 48.2 °F - 37.4 °F 66% 29.89 in 10.0 mi WNW 6.9 mph - N/A   Clear
2:35 AM 48.2 °F - 37.4 °F 66% 29.88 in 10.0 mi WNW 6.9 mph - N/A   Clear
2:55 AM 48.2 °F - 37.4 °F 66% 29.88 in 10.0 mi West 6.9 mph - N/A   Clear
3:15 AM 48.2 °F - 37.4 °F 66% 29.89 in 10.0 mi WNW 6.9 mph - N/A   Clear
3:35 AM 48.2 °F - 35.6 °F 62% 29.89 in 10.0 mi West 8.1 mph - N/A   Clear
3:55 AM 48.2 °F - 37.4 °F 66% 29.89 in 10.0 mi WNW 8.1 mph - N/A   Clear
4:15 AM 46.4 °F 42.4 °F 35.6 °F 66% 29.89 in 10.0 mi WNW 8.1 mph - N/A   Clear
4:35 AM 44.6 °F 40.2 °F 35.6 °F 71% 29.89 in 10.0 mi WNW 8.1 mph - N/A   Clear
4:55 AM 39.2 °F 33.6 °F 35.6 °F 87% 29.90 in 10.0 mi WNW 8.1 mph - N/A   Clear
5:15 AM 39.2 °F 33.6 °F 35.6 °F 87% 29.90 in 10.0 mi WNW 8.1 mph - N/A   Clear
5:35 AM 39.2 °F 33.6 °F 35.6 °F 87% 29.91 in 10.0 mi WNW 8.1 mph - N/A   Partly Cloudy
5:55 AM 39.2 °F 33.6 °F 35.6 °F 87% 29.91 in 10.0 mi WNW 8.1 mph - N/A   Mostly Cloudy
6:15 AM 41.0 °F 35.8 °F 35.6 °F 81% 29.91 in 10.0 mi NW 8.1 mph - N/A   Overcast
6:35 AM 41.0 °F 35.8 °F 35.6 °F 81% 29.91 in 10.0 mi WNW 8.1 mph - N/A   Mostly Cloudy
6:55 AM 41.0 °F 36.4 °F 35.6 °F 81% 29.92 in 10.0 mi WNW 6.9 mph - N/A   Scattered Clouds
7:35 AM 41.0 °F 37.1 °F 35.6 °F 81% 29.93 in 10.0 mi WNW 5.8 mph - N/A   Mostly Cloudy
7:55 AM 41.0 °F 35.8 °F 37.4 °F 87% 29.93 in 10.0 mi WNW 8.1 mph - N/A   Scattered Clouds
8:15 AM 41.0 °F 35.2 °F 37.4 °F 87% 29.94 in 10.0 mi NW 9.2 mph - N/A   Scattered Clouds
8:35 AM 44.6 °F 40.2 °F 37.4 °F 76% 29.94 in 10.0 mi NW 8.1 mph - N/A   Mostly Cloudy
8:55 AM 44.6 °F 40.2 °F 37.4 °F 76% 29.94 in 10.0 mi NW 8.1 mph - N/A   Mostly Cloudy
9:15 AM 48.2 °F - 39.2 °F 71% 29.94 in 10.0 mi NW 5.8 mph - N/A   Mostly Cloudy
9:35 AM 50.0 °F - 39.2 °F 66% 29.95 in 10.0 mi WNW 5.8 mph - N/A   Partly Cloudy
9:55 AM 51.8 °F - 39.2 °F 62% 29.95 in 10.0 mi NNW 6.9 mph - N/A   Clear
10:15 AM 53.6 °F - 39.2 °F 58% 29.95 in 10.0 mi North 9.2 mph - N/A   Clear
10:35 AM 53.6 °F - 39.2 °F 58% 29.95 in 10.0 mi NNW 8.1 mph - N/A   Clear
10:55 AM 55.4 °F - 39.2 °F 54% 29.95 in 10.0 mi NW 9.2 mph - N/A   Clear
11:15 AM 55.4 °F - 39.2 °F 54% 29.95 in 10.0 mi NW 15.0 mph - N/A   Clear
11:35 AM 57.2 °F - 37.4 °F 48% 29.95 in 10.0 mi NNW 15.0 mph 20.7 mph N/A   Clear
11:55 AM 57.2 °F - 33.8 °F 41% 29.95 in 10.0 mi NNW 15.0 mph 21.9 mph N/A   Clear
12:15 PM 59.0 °F - 32.0 °F 36% 29.95 in 10.0 mi NNW 16.1 mph 20.7 mph N/A   Clear
12:35 PM 59.0 °F - 32.0 °F 36% 29.95 in 10.0 mi NNW 19.6 mph 24.2 mph N/A   Clear
12:55 PM 59.0 °F - 28.4 °F 31% 29.95 in 10.0 mi NNW 18.4 mph 25.3 mph N/A   Clear
1:15 PM 60.8 °F - 28.4 °F 29% 29.95 in 10.0 mi NW 15.0 mph 25.3 mph N/A   Clear
1:35 PM 62.6 °F - 28.4 °F 27% 29.95 in 10.0 mi NNW 18.4 mph 27.6 mph N/A   Clear
1:55 PM 62.6 °F - 26.6 °F 26% 29.95 in 10.0 mi NNW 18.4 mph 26.5 mph N/A   Clear
2:15 PM 62.6 °F - 24.8 °F 24% 29.94 in 10.0 mi NNW 20.7 mph 32.2 mph N/A   Clear
2:35 PM 62.6 °F - 28.4 °F 27% 29.94 in 10.0 mi NNW 21.9 mph 27.6 mph N/A   Partly Cloudy
2:55 PM 62.6 °F - 28.4 °F 27% 29.94 in 10.0 mi NNW 23.0 mph 31.1 mph N/A   Clear
3:15 PM 62.6 °F - 26.6 °F 26% 29.94 in 10.0 mi NNW 23.0 mph 29.9 mph N/A   Clear
3:35 PM 62.6 °F - 26.6 °F 26% 29.94 in 10.0 mi NNW 24.2 mph 31.1 mph N/A   Clear
3:55 PM 62.6 °F - 24.8 °F 24% 29.94 in 10.0 mi NNW 21.9 mph 32.2 mph N/A   Clear
4:15 PM 62.6 °F - 24.8 °F 24% 29.94 in 10.0 mi NNW 23.0 mph 33.4 mph N/A   Partly Cloudy
4:35 PM 64.4 °F - 24.8 °F 22% 29.94 in 10.0 mi NNW 19.6 mph 29.9 mph N/A   Partly Cloudy
4:55 PM 62.6 °F - 26.6 °F 26% 29.94 in 10.0 mi NNW 23.0 mph 34.5 mph N/A   Partly Cloudy
5:15 PM 62.6 °F - 26.6 °F 26% 29.95 in 10.0 mi North 26.5 mph 35.7 mph N/A Rain Light Rain
5:35 PM 60.8 °F - 26.6 °F 27% 29.96 in 10.0 mi NNW 25.3 mph 34.5 mph N/A   Partly Cloudy
5:55 PM 62.6 °F - 28.4 °F 27% 29.97 in 10.0 mi North 27.6 mph 39.1 mph N/A Rain Light Rain
6:15 PM 60.8 °F - 28.4 °F 29% 29.98 in 10.0 mi North 23.0 mph 32.2 mph N/A   Scattered Clouds
6:35 PM 59.0 °F - 32.0 °F 36% 30.00 in 10.0 mi North 21.9 mph 29.9 mph N/A   Clear
6:55 PM 55.4 °F - 28.4 °F 36% 30.02 in 10.0 mi NNE 23.0 mph 33.4 mph N/A   Clear
7:15 PM 51.8 °F - 23.0 °F 33% 30.04 in 10.0 mi NNE 20.7 mph 28.8 mph N/A   Clear
7:35 PM 48.2 °F - 24.8 °F 40% 30.06 in 10.0 mi NE 18.4 mph 25.3 mph N/A   Clear
7:55 PM 46.4 °F 39.0 °F 23.0 °F 40% 30.08 in 10.0 mi NE 19.6 mph 26.5 mph N/A   Clear
8:15 PM 44.6 °F 36.9 °F 21.2 °F 39% 30.10 in 10.0 mi NE 18.4 mph 26.5 mph N/A   Clear
8:35 PM 44.6 °F 38.1 °F 21.2 °F 39% 30.11 in 10.0 mi NE 13.8 mph 23.0 mph N/A   Clear
8:55 PM 41.0 °F 33.9 °F 21.2 °F 45% 30.12 in 10.0 mi NE 12.7 mph 19.6 mph N/A   Clear
9:15 PM 41.0 °F 34.7 °F 21.2 °F 45% 30.13 in 10.0 mi NE 10.4 mph - N/A   Clear
9:35 PM 39.2 °F 32.0 °F 19.4 °F 45% 30.14 in 10.0 mi NNE 11.5 mph - N/A   Clear
9:55 PM 39.2 °F 33.0 °F 19.4 °F 45% 30.15 in 10.0 mi NNE 9.2 mph - N/A   Clear
10:15 PM 37.4 °F 30.3 °F 19.4 °F 48% 30.16 in 10.0 mi NNE 10.4 mph - N/A   Clear
10:35 PM 37.4 °F 30.3 °F 19.4 °F 48% 30.17 in 10.0 mi NNE 10.4 mph - N/A   Clear
10:55 PM 35.6 °F 29.2 °F 19.4 °F 52% 30.18 in 10.0 mi NNE 8.1 mph - N/A   Clear
11:15 PM 32.0 °F 28.7 °F 19.4 °F 60% 30.19 in 10.0 mi NE 3.5 mph - N/A   Clear
11:35 PM 32.0 °F 26.4 °F 19.4 °F 60% 30.19 in 10.0 mi NE 5.8 mph - N/A   Clear
11:55 PM 32.0 °F - 19.4 °F 60% 30.20 in 10.0 mi Calm Calm - N/A   Clear